Location: ???????
(55.5931°N, 39.3286°E)
Time: 09:01:35
(UTC+00:00)

RESURS DK-1 - Pass Details

Date: 14 April 2024
Orbit: 543 x 547 km, 69.9° (Epoch: 20 May)

Event Time Altitude Azimuth Distance (km) Brightness Sun altitude
Exits shadow 01:03:15 14° 216° (SW) 1,590 4.1 -10.5°
Maximum altitude 01:06:45 87° 306° (NW) 553 2.3 -10.1°
Drops below altitude 10° 01:10:50 10° 36° (NE) 1,823 6.2 -9.6°
Sets 01:13:02 0° 37° (NE) 2,720 7.4 -9.4°
